Time,TemperatureF,DewpointF,PressureIn,WindDirection,WindDirectionDegrees,WindSpeedMPH,WindSpeedGustMPH,Humidity,HourlyPrecipIn,Conditions,Clouds,dailyrainin,SoftwareType,DateUTC
2013-06-28 00:00:00,73.0,60.1,29.93,SW,225,0.0,0.0,64,0.00,,,0.00,meteohub,2013-06-28 07:00:00,
2013-06-28 00:05:00,73.0,60.1,29.93,SW,225,0.0,0.0,64,0.00,,,0.00,meteohub,2013-06-28 07:05:00,
2013-06-28 00:10:00,72.7,60.3,29.93,SW,225,0.0,0.0,65,0.00,,,0.00,meteohub,2013-06-28 07:10:00,
2013-06-28 00:15:00,72.5,60.1,29.93,SW,225,0.0,0.0,65,0.00,,,0.00,meteohub,2013-06-28 07:15:00,
2013-06-28 00:20:00,72.3,59.9,29.93,SW,225,0.0,0.0,65,0.00,,,0.00,meteohub,2013-06-28 07:20:00,
2013-06-28 00:25:00,72.1,60.1,29.93,SW,225,0.0,0.0,66,0.00,,,0.00,meteohub,2013-06-28 07:25:00,
2013-06-28 00:30:00,72.0,59.9,29.93,NW,315,0.0,0.0,66,0.00,,,0.00,meteohub,2013-06-28 07:30:00,
2013-06-28 00:35:00,72.0,59.9,29.93,NW,315,0.0,0.0,66,0.00,,,0.00,meteohub,2013-06-28 07:35:00,
2013-06-28 00:40:00,71.6,60.1,29.93,NW,315,0.0,0.0,67,0.00,,,0.00,meteohub,2013-06-28 07:40:00,
2013-06-28 00:46:00,71.4,59.9,29.93,SW,225,0.0,0.0,67,0.00,,,0.00,meteohub,2013-06-28 07:46:00,
2013-06-28 00:51:00,71.4,59.9,29.93,South,180,0.0,1.0,67,0.00,,,0.00,meteohub,2013-06-28 07:51:00,
2013-06-28 00:56:00,71.2,60.1,29.93,West,270,1.0,1.0,68,0.00,,,0.00,meteohub,2013-06-28 07:56:00,
2013-06-28 01:01:00,71.2,60.1,29.92,West,270,0.0,2.0,68,0.00,,,0.00,meteohub,2013-06-28 08:01:00,
2013-06-28 01:06:00,71.2,60.1,29.93,West,270,0.0,2.0,68,0.00,,,0.00,meteohub,2013-06-28 08:06:00,
2013-06-28 01:11:00,71.2,60.6,29.93,SW,225,2.0,2.0,69,0.00,,,0.00,meteohub,2013-06-28 08:11:00,
2013-06-28 01:16:00,71.1,60.4,29.92,SW,225,0.0,2.0,69,0.00,,,0.00,meteohub,2013-06-28 08:16:00,
2013-06-28 01:21:00,71.1,60.4,29.92,SW,225,1.0,2.0,69,0.00,,,0.00,meteohub,2013-06-28 08:21:00,
2013-06-28 01:26:00,70.9,60.3,29.92,West,270,2.0,2.0,69,0.00,,,0.00,meteohub,2013-06-28 08:26:00,
2013-06-28 01:31:00,70.9,60.3,29.92,West,270,1.0,2.0,69,0.00,,,0.00,meteohub,2013-06-28 08:31:00,
2013-06-28 01:36:00,70.5,59.9,29.92,West,270,2.0,2.0,69,0.00,,,0.00,meteohub,2013-06-28 08:36:00,
2013-06-28 01:41:00,70.3,60.1,29.92,SW,225,2.0,2.0,70,0.00,,,0.00,meteohub,2013-06-28 08:41:00,
2013-06-28 01:46:00,70.2,59.9,29.92,SW,225,0.0,2.0,70,0.00,,,0.00,meteohub,2013-06-28 08:46:00,
2013-06-28 01:52:00,70.0,59.7,29.92,SW,225,0.0,2.0,70,0.00,,,0.00,meteohub,2013-06-28 08:52:00,
2013-06-28 01:57:00,69.6,59.7,29.92,SW,225,0.0,2.0,71,0.00,,,0.00,meteohub,2013-06-28 08:57:00,
2013-06-28 02:02:00,69.6,59.7,29.92,West,270,1.0,2.0,71,0.00,,,0.00,meteohub,2013-06-28 09:02:00,
2013-06-28 02:07:00,69.4,60.1,29.92,SW,225,1.0,1.0,72,0.00,,,0.00,meteohub,2013-06-28 09:07:00,
2013-06-28 02:12:00,69.4,60.1,29.92,SW,225,0.0,2.0,72,0.00,,,0.00,meteohub,2013-06-28 09:12:00,
2013-06-28 02:17:00,69.3,60.3,29.91,West,270,1.0,2.0,73,0.00,,,0.00,meteohub,2013-06-28 09:17:00,
2013-06-28 02:22:00,69.3,60.3,29.91,SW,225,1.0,2.0,73,0.00,,,0.00,meteohub,2013-06-28 09:22:00,
2013-06-28 02:27:00,69.1,60.1,29.91,SW,225,0.0,2.0,73,0.00,,,0.00,meteohub,2013-06-28 09:27:00,
2013-06-28 02:32:00,69.1,60.1,29.91,West,270,1.0,2.0,73,0.00,,,0.00,meteohub,2013-06-28 09:32:00,
2013-06-28 02:37:00,69.1,60.1,29.91,West,270,1.0,1.0,73,0.00,,,0.00,meteohub,2013-06-28 09:37:00,
2013-06-28 02:42:00,68.9,60.3,29.92,SW,225,0.0,1.0,74,0.00,,,0.00,meteohub,2013-06-28 09:42:00,
2013-06-28 02:47:00,68.7,60.1,29.92,North,0,0.0,1.0,74,0.00,,,0.00,meteohub,2013-06-28 09:47:00,
2013-06-28 02:52:00,68.5,59.9,29.92,North,0,0.0,1.0,74,0.00,,,0.00,meteohub,2013-06-28 09:52:00,
2013-06-28 02:57:00,68.5,60.3,29.92,North,0,0.0,0.0,75,0.00,,,0.00,meteohub,2013-06-28 09:57:00,
2013-06-28 03:02:00,68.4,60.1,29.91,North,0,0.0,0.0,75,0.00,,,0.00,meteohub,2013-06-28 10:02:00,
2013-06-28 03:07:00,68.4,60.1,29.91,North,0,0.0,0.0,75,0.00,,,0.00,meteohub,2013-06-28 10:07:00,
2013-06-28 03:12:00,68.2,59.9,29.91,North,0,0.0,0.0,75,0.00,,,0.00,meteohub,2013-06-28 10:12:00,
2013-06-28 03:17:00,68.0,59.7,29.91,North,0,0.0,0.0,75,0.00,,,0.00,meteohub,2013-06-28 10:17:00,
2013-06-28 03:22:00,68.0,60.1,29.91,North,0,0.0,0.0,76,0.00,,,0.00,meteohub,2013-06-28 10:22:00,
2013-06-28 03:27:00,67.8,59.9,29.92,North,0,0.0,0.0,76,0.00,,,0.00,meteohub,2013-06-28 10:27:00,
2013-06-28 03:32:00,67.8,59.9,29.92,North,0,0.0,0.0,76,0.00,,,0.00,meteohub,2013-06-28 10:32:00,
2013-06-28 03:37:00,67.6,60.3,29.92,North,0,0.0,0.0,77,0.00,,,0.00,meteohub,2013-06-28 10:37:00,
2013-06-28 03:42:00,67.6,60.3,29.91,North,0,0.0,0.0,77,0.00,,,0.00,meteohub,2013-06-28 10:42:00,
2013-06-28 03:47:00,67.6,60.3,29.91,North,0,2.0,2.0,77,0.00,,,0.00,meteohub,2013-06-28 10:47:00,
2013-06-28 03:52:00,67.8,60.3,29.91,SW,225,0.0,2.0,77,0.00,,,0.00,meteohub,2013-06-28 10:52:00,
2013-06-28 03:57:00,67.8,60.3,29.91,SW,225,0.0,2.0,77,0.00,,,0.00,meteohub,2013-06-28 10:57:00,
2013-06-28 04:02:00,67.8,60.3,29.91,SW,225,0.0,2.0,77,0.00,,,0.00,meteohub,2013-06-28 11:02:00,
2013-06-28 04:07:00,67.8,60.3,29.91,SW,225,0.0,0.0,77,0.00,,,0.00,meteohub,2013-06-28 11:07:00,
2013-06-28 04:12:00,67.6,60.3,29.91,West,270,0.0,0.0,77,0.00,,,0.00,meteohub,2013-06-28 11:12:00,
2013-06-28 04:17:00,67.1,59.7,29.91,West,270,0.0,1.0,77,0.00,,,0.00,meteohub,2013-06-28 11:17:00,
2013-06-28 04:22:00,67.3,59.9,29.91,West,270,0.0,1.0,77,0.00,,,0.00,meteohub,2013-06-28 11:22:00,
2013-06-28 04:27:00,67.1,60.1,29.91,West,270,0.0,2.0,78,0.00,,,0.00,meteohub,2013-06-28 11:27:00,
2013-06-28 04:32:00,66.9,59.9,29.91,West,270,0.0,2.0,78,0.00,,,0.00,meteohub,2013-06-28 11:32:00,
2013-06-28 04:37:00,66.7,59.7,29.91,West,270,0.0,2.0,78,0.00,,,0.00,meteohub,2013-06-28 11:37:00,
2013-06-28 04:42:00,66.7,59.7,29.91,West,270,0.0,1.0,78,0.00,,,0.00,meteohub,2013-06-28 11:42:00,
2013-06-28 04:47:00,66.6,59.9,29.91,West,270,0.0,0.0,79,0.00,,,0.00,meteohub,2013-06-28 11:47:00,
2013-06-28 04:52:00,66.4,59.7,29.91,West,270,0.0,0.0,79,0.00,,,0.00,meteohub,2013-06-28 11:52:00,
2013-06-28 04:57:00,66.2,59.9,29.91,West,270,0.0,0.0,80,0.00,,,0.00,meteohub,2013-06-28 11:57:00,
2013-06-28 05:02:00,66.2,59.9,29.92,West,270,0.0,0.0,80,0.00,,,0.00,meteohub,2013-06-28 12:02:00,
2013-06-28 05:07:00,66.0,59.7,29.91,West,270,0.0,0.0,80,0.00,,,0.00,meteohub,2013-06-28 12:07:00,
2013-06-28 05:12:00,66.0,59.7,29.92,West,270,2.0,0.0,80,0.00,,,0.00,meteohub,2013-06-28 12:12:00,
2013-06-28 05:17:00,66.0,59.7,29.92,West,270,1.0,2.0,80,0.00,,,0.00,meteohub,2013-06-28 12:17:00,
2013-06-28 05:22:00,66.2,60.3,29.91,West,270,1.0,2.0,81,0.00,,,0.00,meteohub,2013-06-28 12:22:00,
2013-06-28 05:27:00,66.2,60.3,29.92,West,270,0.0,2.0,81,0.00,,,0.00,meteohub,2013-06-28 12:27:00,
2013-06-28 05:33:00,66.2,60.3,29.92,West,270,0.0,2.0,81,0.00,,,0.00,meteohub,2013-06-28 12:33:00,
2013-06-28 05:38:00,66.0,60.1,29.91,West,270,0.0,1.0,81,0.00,,,0.00,meteohub,2013-06-28 12:38:00,
2013-06-28 05:43:00,66.0,60.1,29.91,West,270,0.0,0.0,81,0.00,,,0.00,meteohub,2013-06-28 12:43:00,
2013-06-28 05:48:00,66.4,60.8,29.91,NE,45,2.0,0.0,82,0.00,,,0.00,meteohub,2013-06-28 12:48:00,
2013-06-28 05:53:00,66.9,61.5,29.91,NE,45,2.0,2.0,83,0.00,,,0.00,meteohub,2013-06-28 12:53:00,
2013-06-28 05:58:00,67.5,62.1,29.91,NE,45,2.0,2.0,83,0.00,,,0.00,meteohub,2013-06-28 12:58:00,
2013-06-28 06:03:00,68.0,62.6,29.91,NE,45,1.0,2.0,83,0.00,,,0.00,meteohub,2013-06-28 13:03:00,
2013-06-28 06:08:00,68.5,62.8,29.91,North,0,0.0,2.0,82,0.00,,,0.00,meteohub,2013-06-28 13:08:00,
2013-06-28 06:13:00,68.7,63.0,29.91,North,0,0.0,2.0,82,0.00,,,0.00,meteohub,2013-06-28 13:13:00,
2013-06-28 06:16:00,68.7,63.0,29.91,North,0,1.0,2.0,82,0.00,,,0.00,meteohub,2013-06-28 13:16:00,
2013-06-28 06:21:00,68.9,62.8,29.91,South,180,1.0,1.0,81,0.00,,,0.00,meteohub,2013-06-28 13:21:00,
2013-06-28 06:26:00,69.1,62.6,29.91,North,0,0.0,1.0,80,0.00,,,0.00,meteohub,2013-06-28 13:26:00,
2013-06-28 06:31:00,69.3,62.8,29.91,NW,315,1.0,1.0,80,0.00,,,0.00,meteohub,2013-06-28 13:31:00,
2013-06-28 06:36:00,69.4,62.6,29.91,North,0,0.0,1.0,79,0.00,,,0.00,meteohub,2013-06-28 13:36:00,
2013-06-28 06:41:00,69.6,62.8,29.91,North,0,0.0,1.0,79,0.00,,,0.00,meteohub,2013-06-28 13:41:00,
2013-06-28 06:46:00,70.0,63.1,29.92,North,0,2.0,2.0,79,0.00,,,0.00,meteohub,2013-06-28 13:46:00,
2013-06-28 06:51:00,70.5,63.7,29.91,NE,45,1.0,2.0,79,0.00,,,0.00,meteohub,2013-06-28 13:51:00,
2013-06-28 06:56:00,71.1,63.9,29.92,NE,45,3.0,3.0,78,0.00,,,0.00,meteohub,2013-06-28 13:56:00,
2013-06-28 07:01:00,72.1,64.6,29.92,NW,315,0.0,3.0,77,0.00,,,0.00,meteohub,2013-06-28 14:01:00,
2013-06-28 07:06:00,72.7,64.8,29.93,North,0,1.0,3.0,76,0.00,,,0.00,meteohub,2013-06-28 14:06:00,
2013-06-28 07:11:00,73.0,64.6,29.93,NE,45,1.0,3.0,75,0.00,,,0.00,meteohub,2013-06-28 14:11:00,
2013-06-28 07:17:00,73.6,65.8,29.93,West,270,2.0,3.0,77,0.00,,,0.00,meteohub,2013-06-28 14:17:00,
2013-06-28 07:22:00,73.8,66.0,29.93,SW,225,1.0,2.0,77,0.00,,,0.00,meteohub,2013-06-28 14:22:00,
2013-06-28 07:27:00,73.9,66.2,29.93,SE,135,2.0,2.0,77,0.00,,,0.00,meteohub,2013-06-28 14:27:00,
2013-06-28 07:32:00,73.9,65.8,29.93,SW,225,2.0,2.0,76,0.00,,,0.00,meteohub,2013-06-28 14:32:00,
2013-06-28 07:37:00,74.1,66.0,29.93,SW,225,1.0,2.0,76,0.00,,,0.00,meteohub,2013-06-28 14:37:00,
2013-06-28 07:42:00,74.3,66.6,29.93,South,180,2.0,2.0,77,0.00,,,0.00,meteohub,2013-06-28 14:42:00,
2013-06-28 07:47:00,74.8,67.1,29.93,South,180,0.0,2.0,77,0.00,,,0.00,meteohub,2013-06-28 14:47:00,
2013-06-28 07:52:00,75.2,67.5,29.93,SW,225,0.0,2.0,77,0.00,,,0.00,meteohub,2013-06-28 14:52:00,
2013-06-28 07:57:00,76.3,66.6,29.93,North,0,2.0,2.0,72,0.00,,,0.00,meteohub,2013-06-28 14:57:00,
2013-06-28 08:02:00,77.2,66.6,29.93,NE,45,2.0,2.0,70,0.00,,,0.00,meteohub,2013-06-28 15:02:00,
2013-06-28 08:07:00,77.9,66.6,29.93,NE,45,4.0,4.0,68,0.00,,,0.00,meteohub,2013-06-28 15:07:00,
2013-06-28 08:12:00,78.6,66.7,29.93,NE,45,2.0,4.0,67,0.00,,,0.00,meteohub,2013-06-28 15:12:00,
2013-06-28 08:17:00,79.2,66.4,29.93,North,0,2.0,4.0,65,0.00,,,0.00,meteohub,2013-06-28 15:17:00,
2013-06-28 08:22:00,79.9,66.2,29.93,East,90,3.0,4.0,63,0.00,,,0.00,meteohub,2013-06-28 15:22:00,
2013-06-28 08:27:00,80.4,66.2,29.93,East,90,2.0,4.0,62,0.00,,,0.00,meteohub,2013-06-28 15:27:00,
2013-06-28 08:32:00,80.8,66.0,29.93,NE,45,2.0,4.0,61,0.00,,,0.00,meteohub,2013-06-28 15:32:00,
2013-06-28 08:37:00,81.5,66.2,29.93,North,0,3.0,3.0,60,0.00,,,0.00,meteohub,2013-06-28 15:37:00,
2013-06-28 08:42:00,82.0,66.7,29.93,NE,45,2.0,3.0,60,0.00,,,0.00,meteohub,2013-06-28 15:42:00,
2013-06-28 08:47:00,82.6,66.7,29.93,NE,45,3.0,3.0,59,0.00,,,0.00,meteohub,2013-06-28 15:47:00,
2013-06-28 08:52:00,83.5,67.1,29.93,NE,45,3.0,3.0,58,0.00,,,0.00,meteohub,2013-06-28 15:52:00,
2013-06-28 08:57:00,84.0,66.6,29.93,NE,45,2.0,3.0,56,0.00,,,0.00,meteohub,2013-06-28 15:57:00,
2013-06-28 09:02:00,84.6,66.6,29.93,NE,45,2.0,4.0,55,0.00,,,0.00,meteohub,2013-06-28 16:02:00,
2013-06-28 09:07:00,85.3,67.3,29.93,North,0,3.0,4.0,55,0.00,,,0.00,meteohub,2013-06-28 16:07:00,
2013-06-28 09:12:00,85.8,67.3,29.92,NE,45,2.0,3.0,54,0.00,,,0.00,meteohub,2013-06-28 16:12:00,
2013-06-28 09:17:00,86.4,67.3,29.92,NE,45,2.0,3.0,53,0.00,,,0.00,meteohub,2013-06-28 16:17:00,
2013-06-28 09:22:00,86.9,67.1,29.92,East,90,2.0,3.0,52,0.00,,,0.00,meteohub,2013-06-28 16:22:00,
2013-06-28 09:27:00,87.6,67.8,29.92,SW,225,2.0,3.0,52,0.00,,,0.00,meteohub,2013-06-28 16:27:00,
2013-06-28 09:32:00,88.3,67.3,29.92,SW,225,2.0,3.0,50,0.00,,,0.00,meteohub,2013-06-28 16:32:00,
2013-06-28 09:37:00,88.9,67.3,29.92,NE,45,2.0,3.0,49,0.00,,,0.00,meteohub,2013-06-28 16:37:00,
2013-06-28 09:42:00,89.2,67.6,29.92,North,0,2.0,3.0,49,0.00,,,0.00,meteohub,2013-06-28 16:42:00,
2013-06-28 09:47:00,89.4,67.8,29.92,West,270,2.0,3.0,49,0.00,,,0.00,meteohub,2013-06-28 16:47:00,
2013-06-28 09:52:00,90.1,68.9,29.92,West,270,2.0,3.0,50,0.00,,,0.00,meteohub,2013-06-28 16:52:00,
2013-06-28 09:57:00,90.9,69.1,29.91,West,270,2.0,2.0,49,0.00,,,0.00,meteohub,2013-06-28 16:57:00,
2013-06-28 10:02:00,91.2,68.7,29.91,South,180,2.0,2.0,48,0.00,,,0.00,meteohub,2013-06-28 17:02:00,
2013-06-28 10:07:00,91.8,69.3,29.91,North,0,2.0,2.0,48,0.00,,,0.00,meteohub,2013-06-28 17:07:00,
2013-06-28 10:12:00,92.7,69.4,29.91,SE,135,2.0,2.0,47,0.00,,,0.00,meteohub,2013-06-28 17:12:00,
2013-06-28 10:17:00,93.4,70.2,29.91,NE,45,2.0,2.0,47,0.00,,,0.00,meteohub,2013-06-28 17:17:00,
2013-06-28 10:22:00,94.5,69.8,29.91,North,0,2.0,2.0,45,0.00,,,0.00,meteohub,2013-06-28 17:22:00,
2013-06-28 10:27:00,94.6,69.3,29.91,SW,225,2.0,3.0,44,0.00,,,0.00,meteohub,2013-06-28 17:27:00,
2013-06-28 10:32:00,94.6,68.7,29.90,West,270,2.0,3.0,43,0.00,,,0.00,meteohub,2013-06-28 17:32:00,
2013-06-28 10:37:00,94.8,69.4,29.91,SE,135,2.0,3.0,44,0.00,,,0.00,meteohub,2013-06-28 17:37:00,
2013-06-28 10:42:00,95.0,68.9,29.91,NW,315,2.0,3.0,43,0.00,,,0.00,meteohub,2013-06-28 17:42:00,
2013-06-28 10:47:00,95.4,68.5,29.90,West,270,3.0,3.0,42,0.00,,,0.00,meteohub,2013-06-28 17:47:00,
2013-06-28 10:52:00,95.7,68.2,29.90,SE,135,1.0,3.0,41,0.00,,,0.00,meteohub,2013-06-28 17:52:00,
2013-06-28 10:57:00,96.3,68.0,29.90,SW,225,1.0,3.0,40,0.00,,,0.00,meteohub,2013-06-28 17:57:00,
2013-06-28 11:02:00,96.4,67.5,29.90,SW,225,2.0,3.0,39,0.00,,,0.00,meteohub,2013-06-28 18:02:00,
2013-06-28 11:07:00,96.8,66.9,29.91,SE,135,2.0,4.0,38,0.00,,,0.00,meteohub,2013-06-28 18:07:00,
2013-06-28 11:12:00,97.3,67.5,29.90,South,180,2.0,4.0,38,0.00,,,0.00,meteohub,2013-06-28 18:12:00,
2013-06-28 11:17:00,97.9,67.1,29.90,West,270,1.0,4.0,37,0.00,,,0.00,meteohub,2013-06-28 18:17:00,
2013-06-28 11:22:00,98.2,67.5,29.90,East,90,2.0,3.0,37,0.00,,,0.00,meteohub,2013-06-28 18:22:00,
2013-06-28 11:27:00,98.6,67.8,29.90,South,180,2.0,3.0,37,0.00,,,0.00,meteohub,2013-06-28 18:27:00,
2013-06-28 11:32:00,98.6,66.2,29.90,NE,45,2.0,4.0,35,0.00,,,0.00,meteohub,2013-06-28 18:32:00,
2013-06-28 11:37:00,98.8,66.4,29.90,SW,225,2.0,4.0,35,0.00,,,0.00,meteohub,2013-06-28 18:37:00,
2013-06-28 11:42:00,99.1,66.7,29.90,South,180,2.0,4.0,35,0.00,,,0.00,meteohub,2013-06-28 18:42:00,
2013-06-28 11:47:00,99.7,66.4,29.90,South,180,2.0,4.0,34,0.00,,,0.00,meteohub,2013-06-28 18:47:00,
2013-06-28 11:52:00,100.8,65.5,29.90,NNW,338,4.0,4.0,32,0.00,,,0.00,meteohub,2013-06-28 18:52:00,
2013-06-28 11:57:00,100.9,65.7,29.90,East,90,2.0,4.0,32,0.00,,,0.00,meteohub,2013-06-28 18:57:00,
2013-06-28 12:02:00,101.3,65.1,29.90,North,0,2.0,4.0,31,0.00,,,0.00,meteohub,2013-06-28 19:02:00,
2013-06-28 12:07:00,100.9,63.9,29.89,NE,45,2.0,4.0,30,0.00,,,0.00,meteohub,2013-06-28 19:07:00,
2013-06-28 12:12:00,101.1,64.0,29.89,North,0,2.0,4.0,30,0.00,,,0.00,meteohub,2013-06-28 19:12:00,
2013-06-28 12:17:00,101.1,63.0,29.89,West,270,2.0,4.0,29,0.00,,,0.00,meteohub,2013-06-28 19:17:00,
2013-06-28 12:22:00,101.3,63.1,29.89,South,180,4.0,4.0,29,0.00,,,0.00,meteohub,2013-06-28 19:22:00,
2013-06-28 12:27:00,101.7,65.3,29.89,South,180,3.0,4.0,31,0.00,,,0.00,meteohub,2013-06-28 19:27:00,
2013-06-28 12:32:00,102.2,64.9,29.89,NW,315,2.0,4.0,30,0.00,,,0.00,meteohub,2013-06-28 19:32:00,
2013-06-28 12:37:00,102.7,63.3,29.88,East,90,2.0,4.0,28,0.00,,,0.00,meteohub,2013-06-28 19:37:00,
2013-06-28 12:42:00,103.3,63.9,29.89,South,180,2.0,3.0,28,0.00,,,0.00,meteohub,2013-06-28 19:42:00,
2013-06-28 12:47:00,104.0,64.4,29.88,West,270,3.0,3.0,28,0.00,,,0.00,meteohub,2013-06-28 19:47:00,
2013-06-28 12:52:00,104.0,64.4,29.88,NE,45,2.0,3.0,28,0.00,,,0.00,meteohub,2013-06-28 19:52:00,
2013-06-28 12:57:00,104.2,67.5,29.88,South,180,2.0,3.0,31,0.00,,,0.00,meteohub,2013-06-28 19:57:00,
2013-06-28 13:02:00,104.4,65.8,29.88,West,270,3.0,3.0,29,0.00,,,0.00,meteohub,2013-06-28 20:02:00,
2013-06-28 13:07:00,104.4,65.8,29.88,SE,135,2.0,3.0,29,0.00,,,0.00,meteohub,2013-06-28 20:07:00,
2013-06-28 13:12:00,104.5,65.8,29.88,SE,135,2.0,4.0,29,0.00,,,0.00,meteohub,2013-06-28 20:12:00,
2013-06-28 13:17:00,105.1,64.4,29.88,NW,315,2.0,4.0,27,0.00,,,0.00,meteohub,2013-06-28 20:17:00,
2013-06-28 13:22:00,105.1,63.3,29.88,West,270,2.0,3.0,26,0.00,,,0.00,meteohub,2013-06-28 20:22:00,
2013-06-28 13:27:00,105.3,64.4,29.87,NW,315,1.0,3.0,27,0.00,,,0.00,meteohub,2013-06-28 20:27:00,
2013-06-28 13:32:00,105.8,64.9,29.87,North,0,2.0,4.0,27,0.00,,,0.00,meteohub,2013-06-28 20:32:00,
2013-06-28 13:37:00,106.7,64.6,29.87,SE,135,2.0,4.0,26,0.00,,,0.00,meteohub,2013-06-28 20:37:00,
2013-06-28 13:42:00,107.2,63.9,29.87,West,270,2.0,4.0,25,0.00,,,0.00,meteohub,2013-06-28 20:42:00,
2013-06-28 13:47:00,107.6,65.3,29.87,NE,45,2.0,3.0,26,0.00,,,0.00,meteohub,2013-06-28 20:47:00,
2013-06-28 13:52:00,108.1,64.8,29.86,SW,225,2.0,2.0,25,0.00,,,0.00,meteohub,2013-06-28 20:52:00,
2013-06-28 13:57:00,108.1,63.5,29.86,SW,225,2.0,3.0,24,0.00,,,0.00,meteohub,2013-06-28 20:57:00,
2013-06-28 14:02:00,108.1,64.8,29.86,West,270,2.0,3.0,25,0.00,,,0.00,meteohub,2013-06-28 21:02:00,
2013-06-28 14:07:00,108.9,66.4,29.86,East,90,2.0,3.0,26,0.00,,,0.00,meteohub,2013-06-28 21:07:00,
2013-06-28 14:12:00,108.9,65.3,29.86,SE,135,2.0,3.0,25,0.00,,,0.00,meteohub,2013-06-28 21:12:00,
2013-06-28 14:17:00,109.0,64.2,29.85,SE,135,2.0,3.0,24,0.00,,,0.00,meteohub,2013-06-28 21:17:00,
2013-06-28 14:22:00,109.2,64.4,29.85,South,180,2.0,3.0,24,0.00,,,0.00,meteohub,2013-06-28 21:22:00,
2013-06-28 14:27:00,109.2,63.1,29.85,SW,225,2.0,3.0,23,0.00,,,0.00,meteohub,2013-06-28 21:27:00,
2013-06-28 14:32:00,109.0,65.5,29.84,SW,225,2.0,3.0,25,0.00,,,0.00,meteohub,2013-06-28 21:32:00,
2013-06-28 14:37:00,109.2,64.4,29.84,West,270,2.0,3.0,24,0.00,,,0.00,meteohub,2013-06-28 21:37:00,
2013-06-28 14:42:00,109.2,64.4,29.84,East,90,2.0,4.0,24,0.00,,,0.00,meteohub,2013-06-28 21:42:00,
2013-06-28 14:47:00,109.4,63.3,29.84,South,180,2.0,4.0,23,0.00,,,0.00,meteohub,2013-06-28 21:47:00,
2013-06-28 14:52:00,109.4,64.6,29.84,SW,225,3.0,4.0,24,0.00,,,0.00,meteohub,2013-06-28 21:52:00,
2013-06-28 14:57:00,109.4,63.3,29.83,NW,315,3.0,3.0,23,0.00,,,0.00,meteohub,2013-06-28 21:57:00,
2013-06-28 15:02:00,109.4,64.6,29.83,North,0,2.0,3.0,24,0.00,,,0.00,meteohub,2013-06-28 22:02:00,
2013-06-28 15:07:00,109.2,61.9,29.83,West,270,2.0,3.0,22,0.00,,,0.00,meteohub,2013-06-28 22:07:00,
2013-06-28 15:12:00,109.2,63.1,29.83,SW,225,2.0,3.0,23,0.00,,,0.00,meteohub,2013-06-28 22:12:00,
2013-06-28 15:17:00,109.4,63.3,29.83,WNW,293,2.0,3.0,23,0.00,,,0.00,meteohub,2013-06-28 22:17:00,
2013-06-28 15:22:00,109.6,64.8,29.83,NW,315,2.0,3.0,24,0.00,,,0.00,meteohub,2013-06-28 22:22:00,
2013-06-28 15:27:00,109.8,64.9,29.82,South,180,2.0,3.0,24,0.00,,,0.00,meteohub,2013-06-28 22:27:00,
2013-06-28 15:32:00,109.6,65.8,29.82,West,270,3.0,3.0,25,0.00,,,0.00,meteohub,2013-06-28 22:32:00,
2013-06-28 15:37:00,109.6,64.8,29.82,South,180,2.0,3.0,24,0.00,,,0.00,meteohub,2013-06-28 22:37:00,
2013-06-28 15:42:00,110.1,65.1,29.82,WNW,293,2.0,3.0,24,0.00,,,0.00,meteohub,2013-06-28 22:42:00,
2013-06-28 15:47:00,110.5,65.5,29.81,SW,225,2.0,3.0,24,0.00,,,0.00,meteohub,2013-06-28 22:47:00,
2013-06-28 15:52:00,110.5,65.5,29.81,West,270,2.0,3.0,24,0.00,,,0.00,meteohub,2013-06-28 22:52:00,
2013-06-28 15:57:00,110.1,66.4,29.81,South,180,2.0,4.0,25,0.00,,,0.00,meteohub,2013-06-28 22:57:00,
2013-06-28 16:02:00,110.1,65.1,29.81,ESE,113,2.0,4.0,24,0.00,,,0.00,meteohub,2013-06-28 23:02:00,
2013-06-28 16:07:00,110.1,65.1,29.81,South,180,2.0,4.0,24,0.00,,,0.00,meteohub,2013-06-28 23:07:00,
2013-06-28 16:12:00,109.8,66.0,29.80,SW,225,2.0,4.0,25,0.00,,,0.00,meteohub,2013-06-28 23:12:00,
2013-06-28 16:17:00,109.4,64.6,29.80,SW,225,2.0,3.0,24,0.00,,,0.00,meteohub,2013-06-28 23:17:00,
2013-06-28 16:22:00,109.0,64.2,29.79,SE,135,2.0,3.0,24,0.00,,,0.00,meteohub,2013-06-28 23:22:00,
2013-06-28 16:27:00,108.9,65.3,29.79,South,180,2.0,3.0,25,0.00,,,0.00,meteohub,2013-06-28 23:27:00,
2013-06-28 16:32:00,108.3,66.0,29.79,West,270,2.0,3.0,26,0.00,,,0.00,meteohub,2013-06-28 23:32:00,
2013-06-28 16:37:00,108.0,66.7,29.79,South,180,2.0,3.0,27,0.00,,,0.00,meteohub,2013-06-28 23:37:00,
2013-06-28 16:42:00,107.8,65.5,29.78,SW,225,2.0,3.0,26,0.00,,,0.00,meteohub,2013-06-28 23:42:00,
2013-06-28 16:47:00,107.6,66.4,29.78,South,180,2.0,3.0,27,0.00,,,0.00,meteohub,2013-06-28 23:47:00,
2013-06-28 16:52:00,107.6,66.4,29.78,NW,315,2.0,3.0,27,0.00,,,0.00,meteohub,2013-06-28 23:52:00,
2013-06-28 16:57:00,107.4,66.4,29.78,North,0,2.0,3.0,27,0.00,,,0.00,meteohub,2013-06-28 23:57:00,
2013-06-28 17:02:00,106.9,64.8,29.78,NW,315,2.0,3.0,26,0.00,,,0.00,meteohub,2013-06-29 00:02:00,
2013-06-28 17:07:00,106.5,65.5,29.78,East,90,2.0,3.0,27,0.00,,,0.00,meteohub,2013-06-29 00:07:00,
2013-06-28 17:12:00,105.8,66.0,29.78,SW,225,1.0,6.0,28,0.00,,,0.00,meteohub,2013-06-29 00:12:00,
2013-06-28 17:17:00,105.3,66.6,29.78,NNW,338,2.0,6.0,29,0.00,,,0.00,meteohub,2013-06-29 00:17:00,
2013-06-28 17:22:00,105.1,68.4,29.78,SW,225,1.0,6.0,31,0.00,,,0.00,meteohub,2013-06-29 00:22:00,
2013-06-28 17:27:00,105.1,68.4,29.78,SE,135,2.0,3.0,31,0.00,,,0.00,meteohub,2013-06-29 00:27:00,
2013-06-28 17:32:00,105.1,67.3,29.78,NE,45,2.0,3.0,30,0.00,,,0.00,meteohub,2013-06-29 00:32:00,
2013-06-28 17:37:00,104.9,68.2,29.78,NE,45,2.0,2.0,31,0.00,,,0.00,meteohub,2013-06-29 00:37:00,
2013-06-28 17:42:00,104.7,68.0,29.78,West,270,1.0,2.0,31,0.00,,,0.00,meteohub,2013-06-29 00:42:00,
2013-06-28 17:47:00,104.5,67.8,29.78,NE,45,2.0,2.0,31,0.00,,,0.00,meteohub,2013-06-29 00:47:00,
2013-06-28 17:52:00,104.2,68.5,29.78,SW,225,2.0,2.0,32,0.00,,,0.00,meteohub,2013-06-29 00:52:00,
2013-06-28 17:57:00,104.0,68.4,29.78,North,0,3.0,3.0,32,0.00,,,0.00,meteohub,2013-06-29 00:57:00,
2013-06-28 18:02:00,104.0,67.5,29.78,SW,225,2.0,3.0,31,0.00,,,0.00,meteohub,2013-06-29 01:02:00,
2013-06-28 18:07:00,104.0,68.4,29.78,East,90,1.0,3.0,32,0.00,,,0.00,meteohub,2013-06-29 01:07:00,
2013-06-28 18:12:00,104.0,68.4,29.78,East,90,2.0,3.0,32,0.00,,,0.00,meteohub,2013-06-29 01:12:00,
2013-06-28 18:15:00,103.8,69.1,29.78,West,270,2.0,2.0,33,0.00,,,0.00,meteohub,2013-06-29 01:15:00,
2013-06-28 18:20:00,103.1,68.4,29.78,SW,225,1.0,2.0,33,0.00,,,0.00,meteohub,2013-06-29 01:20:00,
2013-06-28 18:25:00,102.6,67.1,29.78,South,180,2.0,2.0,32,0.00,,,0.00,meteohub,2013-06-29 01:25:00,
2013-06-28 18:31:00,102.2,66.7,29.78,South,180,2.0,2.0,32,0.00,,,0.00,meteohub,2013-06-29 01:31:00,
2013-06-28 18:36:00,101.7,66.2,29.78,SW,225,2.0,2.0,32,0.00,,,0.00,meteohub,2013-06-29 01:36:00,
2013-06-28 18:41:00,101.3,66.0,29.78,SW,225,2.0,2.0,32,0.00,,,0.00,meteohub,2013-06-29 01:41:00,
2013-06-28 18:46:00,100.9,66.6,29.77,SW,225,1.0,2.0,33,0.00,,,0.00,meteohub,2013-06-29 01:46:00,
2013-06-28 18:51:00,100.4,66.0,29.78,South,180,2.0,2.0,33,0.00,,,0.00,meteohub,2013-06-29 01:51:00,
2013-06-28 18:56:00,99.9,65.7,29.78,South,180,2.0,2.0,33,0.00,,,0.00,meteohub,2013-06-29 01:56:00,
2013-06-28 19:01:00,99.3,65.1,29.78,SW,225,2.0,2.0,33,0.00,,,0.00,meteohub,2013-06-29 02:01:00,
2013-06-28 19:06:00,98.6,65.3,29.78,SW,225,2.0,2.0,34,0.00,,,0.00,meteohub,2013-06-29 02:06:00,
2013-06-28 19:11:00,98.2,65.8,29.78,South,180,2.0,2.0,35,0.00,,,0.00,meteohub,2013-06-29 02:11:00,
2013-06-28 19:16:00,97.9,65.7,29.78,South,180,1.0,2.0,35,0.00,,,0.00,meteohub,2013-06-29 02:16:00,
2013-06-28 19:21:00,97.0,64.0,29.78,SW,225,2.0,2.0,34,0.00,,,0.00,meteohub,2013-06-29 02:21:00,
2013-06-28 19:26:00,96.4,63.5,29.78,South,180,2.0,2.0,34,0.00,,,0.00,meteohub,2013-06-29 02:26:00,
2013-06-28 19:31:00,95.9,63.9,29.78,SE,135,1.0,2.0,35,0.00,,,0.00,meteohub,2013-06-29 02:31:00,
2013-06-28 19:37:00,95.4,63.3,29.78,SW,225,1.0,2.0,35,0.00,,,0.00,meteohub,2013-06-29 02:37:00,
2013-06-28 19:42:00,94.8,63.0,29.78,South,180,2.0,2.0,35,0.00,,,0.00,meteohub,2013-06-29 02:42:00,
2013-06-28 19:47:00,94.5,63.3,29.78,South,180,2.0,2.0,36,0.00,,,0.00,meteohub,2013-06-29 02:47:00,
2013-06-28 19:52:00,93.7,62.8,29.78,SW,225,2.0,2.0,36,0.00,,,0.00,meteohub,2013-06-29 02:52:00,
2013-06-28 19:57:00,93.2,63.1,29.78,SW,225,1.0,2.0,37,0.00,,,0.00,meteohub,2013-06-29 02:57:00,
2013-06-28 20:02:00,92.7,63.3,29.78,West,270,1.0,2.0,38,0.00,,,0.00,meteohub,2013-06-29 03:02:00,
2013-06-28 20:07:00,92.1,63.7,29.78,West,270,1.0,2.0,39,0.00,,,0.00,meteohub,2013-06-29 03:07:00,
2013-06-28 20:12:00,91.6,63.9,29.78,NW,315,1.0,2.0,40,0.00,,,0.00,meteohub,2013-06-29 03:12:00,
2013-06-28 20:17:00,90.9,63.1,29.78,SW,225,0.0,2.0,40,0.00,,,0.00,meteohub,2013-06-29 03:17:00,
2013-06-28 20:22:00,90.3,63.5,29.79,SW,225,0.0,1.0,41,0.00,,,0.00,meteohub,2013-06-29 03:22:00,
2013-06-28 20:27:00,89.8,63.0,29.78,SW,225,0.0,1.0,41,0.00,,,0.00,meteohub,2013-06-29 03:27:00,
2013-06-28 20:32:00,89.1,63.0,29.79,SW,225,0.0,1.0,42,0.00,,,0.00,meteohub,2013-06-29 03:32:00,
2013-06-28 20:37:00,88.7,62.6,29.79,West,270,0.0,1.0,42,0.00,,,0.00,meteohub,2013-06-29 03:37:00,
2013-06-28 20:42:00,88.3,63.0,29.79,West,270,0.0,1.0,43,0.00,,,0.00,meteohub,2013-06-29 03:42:00,
2013-06-28 20:47:00,88.0,62.6,29.79,West,270,1.0,1.0,43,0.00,,,0.00,meteohub,2013-06-29 03:47:00,
2013-06-28 20:52:00,88.0,62.6,29.79,West,270,1.0,1.0,43,0.00,,,0.00,meteohub,2013-06-29 03:52:00,
2013-06-28 20:57:00,87.1,62.6,29.80,West,270,1.0,1.0,44,0.00,,,0.00,meteohub,2013-06-29 03:57:00,
2013-06-28 21:01:00,86.7,62.2,29.79,West,270,1.0,2.0,44,0.00,,,0.00,meteohub,2013-06-29 04:01:00,
2013-06-28 21:02:00,86.7,62.2,29.80,West,270,1.0,2.0,44,0.00,,,0.00,meteohub,2013-06-29 04:02:00,
2013-06-28 21:05:00,86.7,62.2,29.79,West,270,1.0,2.0,44,0.00,,,0.00,meteohub,2013-06-29 04:05:00,
2013-06-28 21:10:00,86.2,62.4,29.79,South,180,1.0,2.0,45,0.00,,,0.00,meteohub,2013-06-29 04:10:00,
2013-06-28 21:15:00,85.6,61.9,29.79,West,270,0.0,2.0,45,0.00,,,0.00,meteohub,2013-06-29 04:15:00,
2013-06-28 21:20:00,85.3,62.2,29.79,West,270,0.0,2.0,46,0.00,,,0.00,meteohub,2013-06-29 04:20:00,
2013-06-28 21:25:00,84.7,61.7,29.79,West,270,0.0,1.0,46,0.00,,,0.00,meteohub,2013-06-29 04:25:00,
2013-06-28 21:30:00,84.2,61.2,29.79,West,270,0.0,1.0,46,0.00,,,0.00,meteohub,2013-06-29 04:30:00,
2013-06-28 21:35:00,83.7,61.3,29.80,West,270,0.0,0.0,47,0.00,,,0.00,meteohub,2013-06-29 04:35:00,
2013-06-28 21:40:00,83.3,61.5,29.80,West,270,0.0,1.0,48,0.00,,,0.00,meteohub,2013-06-29 04:40:00,
2013-06-28 21:45:00,82.8,61.0,29.81,West,270,0.0,1.0,48,0.00,,,0.00,meteohub,2013-06-29 04:45:00,
2013-06-28 21:50:00,82.4,61.3,29.81,West,270,1.0,1.0,49,0.00,,,0.00,meteohub,2013-06-29 04:50:00,
2013-06-28 21:56:00,82.0,61.0,29.81,West,270,1.0,1.0,49,0.00,,,0.00,meteohub,2013-06-29 04:56:00,
2013-06-28 22:01:00,82.0,61.0,29.81,NE,45,2.0,2.0,49,0.00,,,0.00,meteohub,2013-06-29 05:01:00,
2013-06-28 22:06:00,82.0,61.0,29.81,NE,45,2.0,2.0,49,0.00,,,0.00,meteohub,2013-06-29 05:06:00,
2013-06-28 22:11:00,81.5,61.0,29.81,SE,135,2.0,2.0,50,0.00,,,0.00,meteohub,2013-06-29 05:11:00,
2013-06-28 22:16:00,81.1,60.8,29.81,East,90,1.0,2.0,50,0.00,,,0.00,meteohub,2013-06-29 05:16:00,
2013-06-28 22:21:00,81.0,61.2,29.81,SW,225,1.0,2.0,51,0.00,,,0.00,meteohub,2013-06-29 05:21:00,
2013-06-28 22:26:00,80.8,61.0,29.81,SW,225,0.0,2.0,51,0.00,,,0.00,meteohub,2013-06-29 05:26:00,
2013-06-28 22:31:00,80.4,60.6,29.81,SW,225,0.0,2.0,51,0.00,,,0.00,meteohub,2013-06-29 05:31:00,
2013-06-28 22:36:00,80.1,60.8,29.81,SW,225,1.0,2.0,52,0.00,,,0.00,meteohub,2013-06-29 05:36:00,
2013-06-28 22:41:00,80.1,61.3,29.81,North,0,0.0,1.0,53,0.00,,,0.00,meteohub,2013-06-29 05:41:00,
2013-06-28 22:46:00,79.3,60.8,29.81,South,180,1.0,1.0,53,0.00,,,0.00,meteohub,2013-06-29 05:46:00,
2013-06-28 22:51:00,79.2,61.2,29.81,South,180,0.0,1.0,54,0.00,,,0.00,meteohub,2013-06-29 05:51:00,
2013-06-28 22:56:00,78.6,60.6,29.80,South,180,0.0,1.0,54,0.00,,,0.00,meteohub,2013-06-29 05:56:00,
2013-06-28 23:01:00,78.4,61.0,29.81,South,180,0.0,1.0,55,0.00,,,0.00,meteohub,2013-06-29 06:01:00,
2013-06-28 23:07:00,78.4,61.0,29.81,South,180,0.0,1.0,55,0.00,,,0.00,meteohub,2013-06-29 06:07:00,
2013-06-28 23:12:00,78.1,61.2,29.80,SW,225,0.0,2.0,56,0.00,,,0.00,meteohub,2013-06-29 06:12:00,
2013-06-28 23:17:00,77.7,60.8,29.81,SW,225,2.0,2.0,56,0.00,,,0.00,meteohub,2013-06-29 06:17:00,
2013-06-28 23:22:00,77.4,61.0,29.81,SW,225,1.0,2.0,57,0.00,,,0.00,meteohub,2013-06-29 06:22:00,
2013-06-28 23:27:00,77.2,60.8,29.81,SW,225,0.0,2.0,57,0.00,,,0.00,meteohub,2013-06-29 06:27:00,
2013-06-28 23:32:00,76.8,60.4,29.81,SW,225,0.0,2.0,57,0.00,,,0.00,meteohub,2013-06-29 06:32:00,
2013-06-28 23:37:00,76.5,60.6,29.81,SW,225,0.0,2.0,58,0.00,,,0.00,meteohub,2013-06-29 06:37:00,
2013-06-28 23:42:00,76.1,60.8,29.81,SW,225,0.0,1.0,59,0.00,,,0.00,meteohub,2013-06-29 06:42:00,
2013-06-28 23:47:00,75.9,60.1,29.81,SW,225,0.0,1.0,58,0.00,,,0.00,meteohub,2013-06-29 06:47:00,
2013-06-28 23:52:00,75.7,60.4,29.80,West,270,2.0,2.0,59,0.00,,,0.00,meteohub,2013-06-29 06:52:00,
2013-06-28 23:57:00,75.7,60.4,29.81,South,180,0.0,2.0,59,0.00,,,0.00,meteohub,2013-06-29 06:57:00,